BREEZE-KM R/B, 40923

Orbit data source: Space-Track

BREEZE-KM R/B, 40923 is space debris in LEO originally from a launch on Wed, 23 Sep 2015 UTC launched from the Plesetsk Missile And Space Complex (PKMTR). Debris objects in space refer to the collection of defunct objects orbiting the Earth. Examples of debris include non-operational satellites, rocket bodies, and fragments generated from explosions, collisions, or faulty payload assembly.

Loading next visibility...
Identifier
40923, 2015-050D
Orbit
LEO
Country
Flag of CISCIS
Related business
Manufacturer
Khrunichev
Mission
Spacecraft
Bus & Motor
BRIZ, S5.92
Mass
2,370 kg wet, 2,370 kg dry
Launch date (UTC)
2015-09-23 (10 years ago)
Launch vehicle
Unknown
Launch site
Plesetsk Missile And Space Complex (PKMTR)
Object type
Payload
Rocket body
Debris
Shape & HBR
Hex Cyl + 1 Rod, 2.0 m
Radar Cross Section
10.190 m², Large (>1 m²)

Expand to show TLE details & history
Last TLE update: 10 hours ago

TLE from 10 hours ago
0 BREEZE-KM R/B
1 40923U 15050D   25343.42224919  .00000033  00000-0  86893-4 0  9993
2 40923  82.4899  28.1172 0202548 185.9572 173.9119 12.80440678477288
Epoch: 2025-12-09T10:08Z
TLE epoch observation values (Epoch: 2025-12-09T10:08:02.330Z)
Latitude
0.00003°
Longitude
157.70034°
Altitude
1,497.957 km
Speed
7.043 km/s
True Right ascension
01h 52m 28s
True Declination
0° 00' 00"
Sunlit
Object was in full shadow at epoch
Visualization orbit readout
Latitude
Unknown
Longitude
Unknown
Altitude
Unknown
Speed
Unknown
Apparent Right ascension
Unknown
Apparent Declination
Unknown
Sunlit
N/A
Visualization observer readout
Local Sidereal Time
18:02:36
Azimuth
Unknown
Elevation
Unknown
Doppler factor
Unknown
Orbital elements
Apogee altitude
1,493.264 km
Perigee altitude
1,180.727 km
Semi-major axis
7,715.133 km
Eccentricity
0.02025
Inclination
82.4899°
RAAN
28.1172°
Arg. of periapsis
185.9572°
True anomaly
174.15201°
Mean anomaly
173.9119°
Eccentric anomaly
174.03255°
Mean motion
3.20279 °/min
Orbital period
112.4 mins
BSTAR
0.000086893
Loading maneuver chart data...
Computing Atmospheric mass density...
Loading historical data...
Loading historical data...
Loading historical data...
Loading historical data...
Loading historical data...
Loading historical data...
Loading historical data...
Other satellites on launch #50 in the year 2015 (2015-09-23 UTC)

Documentation

Showing up to 5 results
|